User: anonymous   Login
Location: Unspecified
(0.0000°N, 0.0000°E)
Time: 19:13:57
(UTC+00:00)
Language:

Courier 1B Rocket - Orbit

View from above orbital plane
View from above orbital plane
View from above satellite
View from above satellite

Ground track
Ground track

The orbit data is extracted from the following two-line orbital elements,

1    59U 60013B   19107.84922796 +.00000107 +00000-0 +24175-4 0  9990
2    59 028.2489 249.5594 0189318 305.6138 052.6906 13.52968063888783
Epoch (UTC): 17 April 2019 20:22:53
Eccentricity: 0.0189318
inclination: 28.2489°
perigee height: 920 km
apogee height: 1202 km
right ascension of ascending node: 249.5594°
argument of perigee: 305.6138°
revolutions per day: 13.52968063
mean anomaly at epoch: 52.6906°
orbit number at epoch: 88878

The dashed part of the orbit path shows where the satellite is in the earth's shadow,  

DLR